Weather in Dyurtyuli

Russia / Republic of Bashkortostan     54°45′42″N   53°47′40″E
temp.,
°C
wind,
m/s
gust,
m/s
humid.,
%
clouds,
%
prec.,
mm/h
press.,
hPa
HPBL,
m
27 february, sat
sat2723:00−19sse6149149 0.0 1016419
02:00−16sse81588100 0.0 1011619
05:00−14sse91694100 2.1 1007675
08:00−13sse81493100 2.8 1003717
11:00−11sse71293100 3.3 1002597
14:00−9sse71194100 0.9 1001539
17:00−7sse6995100 1.6 1000437
20:00−6se5896100 1.3 999330
28 february, sun
sun2823:00−6ese359699 2.0 999114
02:00−5e239797 0.7 99884
05:00−6ne339696 1.2 99963
08:00−10nne469587 0.3 999164
11:00−11n469487 0.4 1000263
14:00−10n579398 0.1 1002373
17:00−10n589299 0.2 1004476
20:00−12nnw489599 0.1 1007255
1 march, mon
mon123:00−12nnw499599 0.2 1009303
02:00−16nw3797100 0.1 1011170
05:00−17nw479799 0.1 1013200
08:00−21nw239998 0.1 101548
11:00−19nw359799 0.1 1018224
14:00−17nw3595100 0.0 1019304
17:00−16nw3595100 0.0 1020311
20:00−21nw2210091 0.0 102120
2 march, tue
tue223:00−22sw1210073 0.0 102120
02:00−23ssw2210079 0.0 102020
05:00−23ssw349854 0.0 101941
08:00−23s469752 0.0 1016107
11:00−18ssw6109376 0.0 1014328
14:00−13ssw71293100 0.0 1011428
17:00−11ssw81394100 0.8 1008573
20:00−11ssw71493100 0.9 1006572
3 march, wed
wed323:00−10s71394100 1.6 1004521
02:00−8s51295100 1.3 1002500
05:00−5s41196100 2.4 1000457
08:00−6ssw3896100 0.9 999254
11:00−5sw359597 1.3 999243
14:00−3sw349596 0.1 999358
17:00−2nw469797 0.6 1000386
20:00−7nnw51095100 0.5 1001426